SCP
0 0 0 0 0 0 0 0 0 0 0 0 0 0 0 0 0 0 -0 0 0 0 0 0 0 0 0 0 0 0 0 0 0 0 0 0 0 0 0 0 0 0 0 0
0 0 0 0 0 0 0 0 0 0 0 0 0 0 0 0 0 0 -0 0 0 0 0 0 0 0 0 0 0 0 0 0 0 0 0 0 0 0 0 0 0 0 0 0
0 0 0 0 0 0 0 0 0 0 0 0 0 0 0 0 0 0 0 0 0 0 0 0 0 0 0 0 0 0 0 0 0 0 0 0 0 0 0 0 0 0 0 0
0 0 0 0 0 0 0 0 0 0 0 0 0 0 0 0 0 0 0 0 0 0 0 0 0 0 0 0 0 0 0 0 0 0 0 0 0 0 0 0 0 0 0 0
0 0 0 0 0 0 0 0 0 0 0 0 0 0 0 0 0 0 0 0 0 0 0 0 0 0 0 0 0 0 0 0 0 0 0 0 0 0 0 0 0 0 0 0
0 0 0 0 0 0 0 0 0 0 0 0 0 0 0 0 0 0 0 0 0 0 0 0 0 0 0 0 0 0 0 0 0 0 0 0 0 0 0 0 0 0 0 0
0 0 0 0 0 0 0 0 0 0 0 0 0 0 0 0 0 0 0 0 0 0 0 0 0 0 0 0 0 0 0 0 0 0 0 0 0 0 0 0 0 0 0 0
0 0 0 0 0 0 0 0 0 0 0 0 0 0 0 0 0 0 0 0 0 0 0 0 0 0 0 0 0 0 0 0 0 0 0 0 0 0 0 0 0 0 0 0
0 0 0 0 0 0 0 0 0 0 0 0 0 0 0 0 0 0 0 0 0 0 0 0 0 0 0 0 0 0 0 0 0 0 0 0 0 0 0 0 0 0 0 0
0 0 0 0 0 0 0 0 0 0 0 0 0 0 0 0 0 0 0 0 0 0 0 0 0 0 0 0 0 0 0 0 0 0 0 0 0 0 0 0 0 0 0 0
0 0 0 0 0 0 0 0 0 0 0 0 0 0 0 0 0 0 0 0 0 0 0 0 0 0 0 0 0 0 0 0 0 0 0 0 0 0 0 0 0 0 0 0
0 0 0 0 0 0 0 0 0 0 0 0 0 0 0 0 0 0 0 0 0 0 0 0 0 0 0 0 0 0 0 0 0 0 0 0 0 0 0 0 0 0 0 0
0 0 0 0 0 0 0 0 0 0 0 0 0 0 0 0 0 0 0 0 0 0 0 0 0 0 0 0 0 0 0 0 0 0 0 0 0 0 0 0 0 0 0 0
0 0 0 0 0 0 0 0 0 0 0 0 0 0 0 0 0 0 0 0 0 0 0 0 0 0 0 0 0 0 0 0 0 0 0 0 0 0 0 0 0 0 0 0
0 0 0 0 0 0 0 0 0 0 0 0 0 0 0 0 0 0 -0 0 0 0 0 0 0 0 0 0 0 0 0 0 0 0 0 0 0 0 0 0 0 0 0 0
0 0 0 0 0 0 0 0 0 0 0 0 0 0 0 0 0 0 0 0 0 0 0 0 0 0 0 0 0 0 0 0 0 0 0 0 0 0 0 0 0 0 0 0
0 0 0 0 0 0 0 0 0 0 0 0 0 0 0 0 0 0 0 0 0 0 0 0 0 0 0 0 0 0 0 0 0 0 0 0 0 0 0 0 0 0 0 0
0 0 0 0 0 0 0 0 0 0 0 0 0 0 0 0 0 0 0 0 0 0 0 0 0 0 0 0 0 0 0 0 0 0 0 0 0 0 0 0 0 0 0 0
0 0 0 0 0 0 0 0 0 0 0 0 0 0 0 0 0 0 0 0 0 0 0 0 0 0 0 0 0 0 0 0 0 0 0 0 0 0 0 0 0 0 0 0
0 0 0 0 0 0 0 0 0 0 0 0 0 0 0 0 0 0 0 0 0 0 0 0 0 0 0 0 0 0 0 0 0 0 0 0 0 0 0 0 0 0 0 0
0 0 0 0 0 0 0 0 0 0 0 0 0 0 0 0 0 0 0 0 0 0 0 0 0 0 0 0 0 0 0 0 0 0 0 0 0 0 0 0 0 -0 -0 -0
0 0 0 0 0 0 0 0 0 0 0 0 0 0 0 0 0 0 0 0 0 0 0 0 0 0 0 0 0 0 0 0 0 0 0 0 0 0 0 0 0 -0 0 0
0 0 0 0 0 0 0 0 0 0 0 0 0 0 0 0 0 0 0 0 0 0 0 0 0 0 0 0 0 0 0 0 0 0 0 0 0 0 0 0 0 0 0 0
0 0 0 0 0 0 0 0 0 0 0 0 0 0 0 0 0 0 0 0 0 0 0 0 0 0 0 0 0 0 0 0 0 0 0 0 0 0 0 0 0 0 0 0
0 0 0 0 0 0 0 0 0 0 0 0 0 0 0 0 0 0 0 0 0 0 0 0 0 0 0 0 0 0 0 0 0 0 0 0 0 0 0 0 0 0 0 0
0 0 0 0 0 0 0 0 0 0 0 0 0 0 0 0 0 0 0 0 0 0 0 0 0 0 0 0 0 0 0 0 0 0 0 0 0 0 0 0 0 0 0 0
Wind_Speed
7 9 15 17 16 7 5 6 7 6 4 6 11 14 13 9 7 9 10 10 11 12 12 9 9 9 8 9 10 11 11 11 9 7 8 8 9 8 8 8 9 11 10 11
8 18 14 8 9 9 8 9 7 4 3 5 8 14 12 12 11 11 12 13 13 12 10 9 8 8 9 10 10 10 11 11 11 10 8 6 6 6 7 6 8 11 11 11
18 7 10 9 9 13 15 15 11 5 2 3 5 11 11 10 10 10 11 12 12 13 14 11 9 8 8 9 10 10 11 11 11 11 5 4 3 2 4 7 9 11 11 11
13 8 8 11 13 15 17 10 8 7 5 6 5 11 8 9 11 13 14 12 12 13 12 11 9 8 8 9 8 9 10 10 9 9 9 10 10 10 10 8 7 7 10 11
11 10 12 15 13 13 7 6 9 9 8 8 6 10 10 6 11 13 13 13 13 12 12 11 10 9 8 8 7 7 8 8 8 9 11 11 11 10 6 5 6 8 8 10
6 4 10 11 7 10 5 4 3 5 7 16 15 12 12 9 12 9 10 11 12 11 10 10 8 6 6 5 5 5 6 7 7 9 10 12 13 11 8 7 7 7 6 7
9 7 5 4 7 8 8 8 7 8 11 12 10 12 15 8 9 11 11 11 11 10 9 8 7 6 5 4 4 4 5 6 6 7 8 10 11 11 11 9 8 7 6 7
12 11 13 9 11 11 15 14 11 9 8 5 6 14 11 6 7 7 8 8 7 7 6 6 5 5 4 3 3 3 4 5 5 6 7 7 7 6 6 7 6 6 6 7
11 10 6 10 7 12 11 14 9 3 2 4 7 8 10 4 5 6 7 7 7 5 5 4 4 3 3 2 2 2 3 3 3 4 5 5 6 6 6 5 5 4 4 4
6 6 5 6 4 9 9 8 6 10 10 11 8 9 8 5 7 7 7 7 6 5 4 3 2 2 1 1 1 0 1 1 1 1 2 3 4 5 4 3 3 3 4 3
6 5 3 7 13 15 10 11 9 7 7 8 9 10 8 9 9 9 9 7 7 5 4 3 2 0 0 1 1 1 1 1 1 1 0 1 1 2 2 2 3 3 3 4
9 6 7 9 6 7 11 13 14 11 10 8 9 12 3 6 6 6 6 5 4 3 2 1 0 1 2 2 2 2 2 2 1 1 1 0 0 0 0 1 2 3 4 4
10 8 7 5 5 6 9 11 14 11 7 9 11 11 2 2 3 4 4 4 3 2 1 0 1 1 1 2 2 2 2 2 2 2 1 1 1 1 1 2 2 3 3 3
9 7 10 14 8 7 10 13 14 15 13 14 16 15 10 6 5 5 4 4 4 3 3 1 1 1 1 1 1 1 2 2 2 2 2 2 2 2 2 2 3 3 3 4
6 8 9 11 8 6 8 11 14 17 18 15 15 18 19 12 9 7 6 5 4 3 3 3 2 1 1 2 2 2 2 2 2 2 2 2 3 3 3 3 4 4 4 4
7 7 7 10 11 10 12 13 16 18 17 18 16 19 15 10 7 6 6 6 7 6 6 4 3 2 1 0 1 1 1 2 2 2 2 3 3 3 4 4 4 4 4 4
7 7 7 9 8 6 15 18 19 16 15 15 21 22 13 10 10 10 9 8 9 8 7 6 4 3 2 1 0 0 1 2 3 3 3 3 3 3 3 4 4 4 5 5
8 8 5 5 5 15 12 10 15 18 18 17 14 12 13 14 9 6 6 8 8 7 5 4 3 2 1 1 1 1 2 2 3 3 3 4 4 4 4 4 4 5 5 5
10 9 6 5 9 10 9 7 11 14 16 15 17 15 12 8 3 5 6 7 8 7 5 4 3 2 1 2 2 2 2 2 2 3 3 4 4 4 5 5 5 5 5 5
10 9 8 7 7 11 12 8 6 7 12 13 15 16 13 7 7 10 6 6 5 4 4 3 3 3 3 2 2 2 2 2 2 3 3 3 3 4 4 5 5 5 5 5
8 9 12 11 10 10 8 3 8 10 12 7 9 13 12 12 12 7 4 5 5 4 4 4 5 4 3 2 2 2 2 2 3 3 3 4 4 4 4 5 5 5 5 5
9 8 9 8 9 13 4 7 10 8 2 2 4 6 7 7 4 3 4 4 5 4 4 4 4 3 2 2 2 2 1 2 3 3 3 4 4 4 3 4 4 5 5 5
9 9 7 10 10 4 5 6 4 2 3 3 3 3 4 4 4 4 4 5 5 5 5 4 4 3 2 2 2 2 1 2 3 3 3 3 4 3 3 4 4 4 4 4
4 2 4 5 7 4 3 2 2 2 3 2 2 2 3 4 5 5 5 5 5 4 4 4 4 3 1 2 2 1 1 1 1 2 3 3 3 4 3 3 3 3 4 4
6 4 4 7 5 3 5 5 3 2 1 1 1 1 2 4 4 4 4 4 4 4 3 3 3 3 2 1 2 2 2 1 1 1 3 3 3 3 4 4 3 4 4 4
6 7 8 9 6 6 6 4 4 3 3 3 2 2 2 3 3 4 4 4 4 4 3 3 3 3 2 1 1 2 2 2 1 1 2 2 3 3 3 4 5 6 6 9
Wind_Direction
181 197 209 206 207 213 189 196 215 223 207 203 235 248 254 252 244 247 249 247 245 246 249 247 240 234 230 225 220 218 216 213 201 199 204 210 219 218 216 217 215 212 211 207
194 223 216 194 201 216 222 229 232 254 220 216 253 260 253 242 237 232 237 242 244 248 256 252 242 230 225 226 224 221 219 214 204 206 203 203 204 212 214 212 214 213 213 210
210 214 183 187 196 210 221 226 222 221 283 256 285 277 244 243 234 237 235 236 238 239 246 251 246 233 225 227 225 222 220 217 212 206 192 183 182 198 205 213 218 216 213 212
229 224 184 194 206 203 231 215 207 209 218 244 212 273 251 229 239 237 238 237 240 242 243 245 243 241 232 230 227 223 221 217 214 202 198 198 207 218 221 217 217 213 210 214
217 194 194 209 209 194 215 173 193 208 222 249 220 257 268 200 234 239 236 236 238 240 239 240 239 237 236 233 227 224 221 219 212 202 204 206 217 226 226 211 213 215 213 215
230 199 200 211 205 191 162 141 188 203 220 243 225 232 264 202 218 231 230 231 234 238 239 241 245 244 246 245 233 225 218 222 214 206 206 209 217 222 221 219 221 221 219 218
220 226 219 178 171 178 177 178 206 213 217 238 194 216 252 210 210 212 220 226 230 232 233 236 244 248 251 250 235 222 211 223 217 207 209 214 219 220 222 223 225 224 223 224
206 218 201 195 190 189 197 197 205 210 218 246 194 227 251 216 221 225 229 232 234 234 233 237 240 239 239 240 232 217 209 219 214 206 211 214 217 219 227 229 228 226 228 231
199 226 189 195 182 174 189 211 213 226 231 252 235 256 288 243 238 236 237 237 238 238 237 238 241 239 237 236 231 213 207 220 220 212 211 211 214 218 227 231 227 233 240 243
181 214 207 184 173 205 191 171 179 211 222 237 243 236 239 212 219 225 228 230 235 237 243 245 245 252 269 268 275 238 170 190 246 226 214 214 217 222 231 233 236 242 249 250
187 203 206 176 194 197 186 195 203 209 207 215 245 251 219 208 206 210 219 221 221 227 234 237 250 291 23 36 44 53 54 61 40 20 354 199 216 217 216 229 245 252 257 255
189 201 225 221 223 209 204 206 201 214 221 215 238 257 209 206 213 210 218 219 215 210 217 211 77 46 38 39 40 47 42 48 31 25 56 55 30 91 220 259 272 273 269 266
172 198 221 232 226 206 215 219 217 221 219 221 231 255 236 221 234 220 210 207 200 186 179 108 53 34 22 21 31 42 35 25 20 44 63 49 26 13 327 306 308 309 302 299
185 195 213 226 219 192 210 215 212 215 229 234 234 252 260 256 243 238 223 204 194 194 192 203 252 289 337 360 21 32 22 20 31 47 56 46 18 360 340 331 328 321 314 307
197 218 224 238 239 223 225 223 217 221 226 233 239 243 251 244 231 220 207 199 199 210 217 220 229 262 330 357 5 16 12 18 35 53 50 25 7 5 1 353 341 331 326 317
196 216 219 241 237 231 241 234 228 228 229 236 246 252 251 245 229 220 204 198 206 216 220 218 217 223 230 259 345 359 8 16 33 49 37 19 14 12 5 350 338 333 328 320
191 194 210 240 239 236 241 229 226 227 223 222 236 244 248 248 227 213 207 208 216 221 217 210 208 209 210 210 138 13 5 30 47 45 29 15 7 3 354 347 345 339 331 325
203 204 213 225 222 237 241 218 215 225 232 225 230 240 238 242 237 213 200 206 221 224 220 210 195 190 192 119 74 52 38 41 46 39 24 12 4 356 353 352 347 339 331 324
207 203 205 209 233 255 267 232 200 210 234 225 227 236 242 243 242 249 219 206 214 217 205 192 175 163 127 82 63 76 62 51 43 25 11 359 354 351 349 347 343 337 332 328
207 203 206 210 218 228 237 225 194 177 241 233 221 229 233 211 227 244 211 197 200 183 166 155 138 124 119 90 69 77 63 45 16 354 347 347 351 347 342 338 334 332 330 324
191 202 213 221 232 249 247 209 140 185 233 231 211 221 222 217 228 231 170 169 169 160 149 137 132 128 124 102 99 97 76 31 348 344 348 350 349 346 342 338 334 329 326 323
192 196 205 203 222 243 209 159 187 214 214 216 218 218 214 219 219 191 166 156 153 147 137 131 128 123 108 98 107 99 54 4 353 351 350 349 348 346 348 340 333 331 328 325
207 202 198 204 221 233 174 192 214 198 205 225 229 229 187 193 204 193 179 163 154 144 136 125 124 114 79 65 86 102 22 4 357 354 346 339 339 344 346 338 333 333 331 326
242 208 203 236 246 241 227 217 230 214 215 234 226 197 181 183 183 178 164 153 145 135 132 129 128 124 93 48 50 54 21 9 -0 345 334 333 338 341 343 338 333 329 327 326
223 195 216 242 258 281 255 230 222 221 201 155 114 146 173 160 169 163 153 145 136 123 118 123 131 131 116 61 32 3 355 357 355 344 340 338 343 337 333 335 326 319 308 308
201 198 204 230 218 213 233 217 194 193 203 189 155 123 117 139 143 130 124 117 114 111 104 104 108 114 98 62 16 345 341 338 331 343 346 335 332 331 332 331 326 323 314 318